Date,TemperatureHighF,TemperatureAvgF,TemperatureLowF,DewpointHighF,DewpointAvgF,DewpointLowF,HumidityHigh,HumidityAvg,HumidityLow,PressureMaxIn,PressureMinIn,WindSpeedMaxMPH,WindSpeedAvgMPH,GustSpeedMaxMPH,PrecipitationSumIn
2013-5-1,47.8,40.9,31.5,29.2,28.0,26.3,85,61,46,29.80,29.47,0,0,0,0.00
2013-5-2,46.0,45.7,36.8,35.5,28.6,28.4,92,51,50,29.88,29.49,0,0,0,0.00
2013-5-3,43.7,39.4,36.0,41.5,37.2,34.2,96,92,86,29.91,29.84,0,0,0,0.56
2013-5-4,43.2,38.4,34.0,36.6,33.2,29.7,95,82,65,29.89,29.65,3,0,3,0.38
2013-5-5,51.3,43.0,38.4,34.0,28.7,24.6,83,58,46,30.11,29.88,0,0,0,0.00
2013-5-6,48.4,39.8,29.1,36.4,32.4,26.8,92,76,59,30.25,30.11,0,0,0,0.00
2013-5-7,46.2,39.9,34.0,35.0,32.3,29.9,89,75,59,30.27,30.23,0,0,0,0.00
2013-5-8,53.6,44.9,30.9,34.0,30.5,27.0,89,58,39,30.25,30.19,0,0,0,0.00
2013-5-9,57.9,42.7,31.4,39.7,33.9,27.7,92,73,48,30.30,30.18,0,0,0,0.03
2013-5-10,61.2,46.2,35.5,40.6,34.0,28.4,88,66,31,30.20,29.96,0,0,0,0.00
2013-5-11,53.3,45.6,39.0,42.8,40.0,37.3,94,82,62,29.96,29.53,0,0,0,0.08
2013-5-12,55.3,46.3,41.6,45.0,41.4,38.4,94,84,58,29.53,29.45,0,0,0,0.13
2013-5-13,49.7,43.6,39.6,44.6,40.3,38.1,95,88,71,29.45,29.36,0,0,0,0.22
2013-5-14,42.0,38.5,32.8,38.4,34.4,28.9,93,85,64,29.61,29.42,2,0,2,0.31
2013-5-15,47.0,38.4,28.5,35.9,30.6,25.8,92,74,54,29.79,29.61,0,0,0,0.00
2013-5-16,39.8,36.1,32.3,37.7,34.1,30.8,94,92,85,29.75,29.44,0,0,0,0.85
2013-5-17,44.7,39.7,34.7,38.8,34.9,29.9,95,84,65,29.43,29.34,7,0,7,0.11
2013-5-18,40.0,35.6,34.1,30.4,24.6,23.1,72,64,62,29.60,29.42,6,0,6,0.00
2013-5-19,48.1,36.6,34.8,23.1,22.1,16.7,62,57,30,30.56,29.60,0,0,0,0.00
2013-5-20,51.7,42.2,32.4,29.8,23.5,18.3,72,48,33,30.61,30.52,0,0,0,0.00
2013-5-21,52.5,43.0,33.3,35.2,30.3,26.6,78,62,45,30.53,30.27,0,0,0,0.00
2013-5-22,51.0,43.5,36.6,41.3,37.0,31.4,87,78,64,30.27,30.12,0,0,0,0.00
2013-5-23,55.8,47.5,39.3,43.8,40.7,36.6,91,78,63,30.14,30.07,0,0,0,0.00
2013-5-24,60.5,53.0,42.1,44.8,41.8,38.6,92,67,46,30.02,29.97,0,0,0,0.00
2013-5-25,51.6,42.8,37.6,42.6,39.3,36.3,95,88,71,30.03,29.96,0,0,0,0.00
2013-5-26,46.8,42.9,38.9,44.2,40.2,36.5,94,90,82,29.98,29.88,0,0,0,0.24
2013-5-27,57.2,48.1,42.3,45.8,43.1,40.7,95,83,65,29.92,29.74,0,0,0,0.00
2013-5-28,79.1,60.5,43.3,45.8,41.3,37.5,87,54,24,29.74,29.59,0,0,0,0.00
2013-5-29,61.5,61.5,61.5,45.2,45.2,45.2,55,55,55,29.61,29.61,0,0,0,0.00
2013-5-30,61.5,61.5,61.5,45.2,45.2,45.2,55,55,55,29.61,29.61,0,0,0,0.00
2013-5-31,61.5,61.5,61.5,45.2,45.2,45.2,55,55,55,29.61,29.61,0,0,0,0.00